Regional Weather Roundup
Issued by NWS State College, PA

Home | Current Version | Previous Version | Text Only | Print | Product List | Glossary Off
Versions: 1 2 3 4 5 6 7 8 9 10 11 12 13 14 15 16 17 18 19 20 21 22 23 24 25 26 27 28 29 30 31 32 33 34 35 36 37 38 39 40 41 42 43 44 45 46 47 48 49 50

000
ASUS41 KCTP 220203
RWRCTP

REGIONAL WEATHER ROUNDUP
NATIONAL WEATHER SERVICE STATE COLLEGE PA
1000 PM EDT SAT APR 21 2018

Note: "fair" indicates few or no clouds below 12,000 feet with no
significant weather and/or obstructions to visibility.

* = STATION THAT DOES NOT REPORT PRECIPITATION /E.G. RAIN...SNOW...ETC/
    THUNDER OR FOG.

PAZ002>004-007>009-013>016-020>023-029>032-220300-
WESTERN PENNSYLVANIA

CITY           SKY/WX    TMP DP  RH WIND       PRES   REMARKS
ERIE           FAIR      38  30  73 CALM      30.41S
MEADVILLE      FAIR      43  22  43 NE5       30.38S
FRANKLIN*      FAIR      44  22  41 N8        30.38R
NEW CASTLE     FAIR      48  29  47 N7        30.39R
BEAVER COUNTY  NOT AVBL
BUTLER*        FAIR      50  24  36 N3        30.37R
PITTSBURGH INT MOCLDY    52  24  33 NW5       30.35S
PITTSBURGH     FAIR      52  22  30 CALM      30.35S
INDIANA*       MOCLDY    46  30  53 CALM      30.39S
LATROBE        CLOUDY    48  27  43 CALM      30.37R
WASHINGTON CO* CLOUDY    47  31  53 CALM      30.38S
$$

PAZ004>006-010>012-017>019-024>028-033>037-041-042-045-046-049>053-220300-
CENTRAL PENNSYLVANIA

CITY           SKY/WX    TMP DP  RH WIND       PRES   REMARKS
BRADFORD       FAIR      43  16  33 N3        30.38R
DUBOIS         FAIR      46  24  42 NE8       30.35R
CLEARFIELD     FAIR      49  21  33 NE5       30.36R
JOHNSTOWN      FAIR      48  17  29 N5        30.34R
ALTOONA        FAIR      49  28  44 CALM      30.35R
STATE COLLEGE  CLEAR     50  21  32 N3        30.35R
WILLIAMSPORT   FAIR      48  24  39 CALM      30.36R
SELINSGROVE    FAIR      41  34  76 CALM      30.36R
FT INDIANTOWN  FAIR      51  32  47 CALM      30.35R
CAPITAL CITY   FAIR      52  34  50 CALM      30.34S
HARRISBURG     MOCLDY    47  32  56 E5        30.34S
YORK           FAIR      51  30  44 S7        30.35S
$$

PAZ038>040-043-044-047-048-054-055-060>062-067>071-220300-
EASTERN PENNSYLVANIA

CITY           SKY/WX    TMP DP  RH WIND       PRES   REMARKS
SCRANTON       FAIR      46  24  42 N6        30.36R
MOUNT POCONO   FAIR      41  20  43 NW7       30.34R
ALLENTOWN      FAIR      50  23  34 N3        30.35R
QUAKERTOWN*    CLEAR     46  30  53 CALM      30.35R
READING        FAIR      53  28  38 CALM      30.34R
LANCASTER      FAIR      50  32  50 W5        30.35S
COATESVILLE    FAIR      50  27  40 W3        30.36S
POTTSTOWN      FAIR      47  30  51 CALM      30.36R
BLUE BELL      FAIR      45  34  65 CALM      30.36S
DOYLESTOWN     FAIR      48  29  47 CALM      30.34R
WILLOW GROVE   NOT AVBL
NORTH PHILA    FAIR      54  29  38 W6        30.36R
PHILADELPHIA   MOCLDY    54  30  40 SW7       30.36R
$$




USA.gov is the U.S. government's official web portal to all federal, state and local government web resources and services.